Weather History for Inverness, FL

Change the Weather History Date:

Monday, February 18, 2013

  Actual Average (KOCF) Record (KOCF)
Temperature  
Mean Temperature 47 °F -  
Max Temperature 68 °F 71 °F 82 °F (2000)
Min Temperature 26 °F 46 °F 24 °F (2013)
Degree Days  
Heating Degree Days 18    
Moisture  
Dew Point 33 °F    
Average Humidity 63    
Maximum Humidity 100    
Minimum Humidity 30    
Precipitation  
Precipitation 0.00 in - - ()
Sea Level Pressure  
Sea Level Pressure 30.33 in    
Wind  
Wind Speed 2 mph (ESE)    
Max Wind Speed 12 mph    
Max Gust Speed 18 mph    
Visibility 10 miles    
Events      
Averages and records for this station are not official NWS values.
T = Trace of Precipitation, MM = Missing Value Source: NWS Daily Summary

Daily Weather History Graph

Daily Weather History Graph

Search for Another Location

Airport:

Trip Planner

Search our weather history database for the weather conditions in past years. The results will help you decide how hot, cold, wet, or windy it might be!

Date:

Astronomy

Feb. 18, 2013 Rise Set
Actual Time 7:04 AM EST 6:21 PM EST
Civil Twilight 6:40 AM EST 6:45 PM EST
Nautical Twilight 6:13 AM EST 7:13 PM EST
Astronomical Twilight 5:45 AM EST 7:41 PM EST
Moon 12:20 PM EST (2/18) 1:30 AM EST (2/18)
Length of Visible Light 12h 04m
Length of Day
11h 16m
First Quarter, 58% of the Moon is Illuminated
Feb 18
First Quarter
Feb 25
Full
Mar 4
Last Quarter
Mar 11
New
Mar 19
First Quarter

Hourly Weather History & Observations

Time (EST) Temp. Windchill Dew Point Humidity Pressure Visibility Wind Dir Wind Speed Gust Speed Precip Events Conditions
12:15 AM 32.0 °F - 28.4 °F 87% 30.38 in 10.0 mi Calm Calm - N/A   Clear
12:35 AM 30.2 °F - 28.4 °F 93% 30.38 in 10.0 mi Calm Calm - N/A   Clear
12:55 AM 30.2 °F - 28.4 °F 93% 30.38 in 10.0 mi Calm Calm - N/A   Clear
1:15 AM 30.2 °F - 28.4 °F 93% 30.38 in 10.0 mi Calm Calm - N/A   Clear
1:35 AM 30.2 °F - 28.4 °F 93% 30.38 in 10.0 mi Calm Calm - N/A   Clear
1:55 AM 30.2 °F - 28.4 °F 93% 30.39 in 10.0 mi Calm Calm - N/A   Clear
2:15 AM 30.2 °F - 28.4 °F 93% 30.38 in 10.0 mi Calm Calm - N/A   Clear
2:35 AM 28.4 °F - 28.4 °F 100% 30.38 in 10.0 mi Calm Calm - N/A   Clear
2:55 AM 28.4 °F - 28.4 °F 100% 30.37 in 10.0 mi Calm Calm - N/A   Clear
3:15 AM 28.4 °F - 28.4 °F 100% 30.37 in 10.0 mi Calm Calm - N/A   Clear
3:35 AM 28.4 °F - 28.4 °F 100% 30.37 in 10.0 mi Calm Calm - N/A   Clear
3:55 AM 28.4 °F - 26.6 °F 93% 30.37 in 10.0 mi Calm Calm - N/A   Clear
4:15 AM 28.4 °F - 26.6 °F 93% 30.37 in 10.0 mi Calm Calm - N/A   Clear
4:35 AM 28.4 °F - 28.4 °F 100% 30.37 in 10.0 mi Calm Calm - N/A   Clear
4:55 AM 26.6 °F - 26.6 °F 100% 30.37 in 10.0 mi Calm Calm - N/A   Clear
5:15 AM 28.4 °F - 26.6 °F 93% 30.37 in 10.0 mi Calm Calm - N/A   Clear
5:35 AM 26.6 °F - 26.6 °F 100% 30.37 in 10.0 mi Calm Calm - N/A   Clear
5:55 AM 26.6 °F - 26.6 °F 100% 30.38 in 10.0 mi Calm Calm - N/A   Clear
6:15 AM 26.6 °F - 26.6 °F 100% 30.38 in 10.0 mi Calm Calm - N/A   Clear
6:35 AM 28.4 °F - 26.6 °F 93% 30.38 in 10.0 mi Calm Calm - N/A   Clear
6:55 AM 26.6 °F - 26.6 °F 100% 30.38 in 10.0 mi Calm Calm - N/A   Clear
7:15 AM 26.6 °F - 26.6 °F 100% 30.38 in 10.0 mi Calm Calm - N/A   Clear
7:35 AM 28.4 °F - 28.4 °F 100% 30.39 in 10.0 mi Calm Calm - N/A   Clear
7:55 AM 30.2 °F - 30.2 °F 100% 30.39 in 10.0 mi Calm Calm - N/A   Clear
8:15 AM 33.8 °F - 32.0 °F 93% 30.39 in 10.0 mi Calm Calm - N/A   Clear
8:35 AM 39.2 °F - 32.0 °F 75% 30.40 in 10.0 mi Calm Calm - N/A   Clear
8:55 AM 44.6 °F - 30.2 °F 57% 30.40 in 10.0 mi Calm Calm - N/A   Clear
9:15 AM 46.4 °F 42.9 °F 24.8 °F 43% 30.40 in 10.0 mi ENE 6.9 mph - N/A   Clear
9:35 AM 50.0 °F - 23.0 °F 35% 30.41 in 10.0 mi NE 5.8 mph - N/A   Clear
9:55 AM 51.8 °F - 21.2 °F 30% 30.41 in 10.0 mi NE 6.9 mph - N/A   Clear
10:15 AM 51.8 °F - 23.0 °F 33% 30.40 in 10.0 mi NE 6.9 mph - N/A   Clear
10:35 AM 53.6 °F - 24.8 °F 33% 30.41 in 10.0 mi ENE 6.9 mph - N/A   Clear
10:55 AM 55.4 °F - 28.4 °F 36% 30.40 in 10.0 mi ESE 8.1 mph - N/A   Clear
11:15 AM 57.2 °F - 28.4 °F 33% 30.40 in 10.0 mi ESE 6.9 mph - N/A   Clear
11:35 AM 59.0 °F - 30.2 °F 34% 30.40 in 10.0 mi East 8.1 mph - N/A   Clear
11:55 AM 59.0 °F - 30.2 °F 34% 30.38 in 10.0 mi ESE 6.9 mph - N/A   Clear
12:15 PM 60.8 °F - 32.0 °F 34% 30.37 in 10.0 mi ENE 9.2 mph - N/A   Clear
12:35 PM 60.8 °F - 32.0 °F 34% 30.36 in 10.0 mi SE 8.1 mph - N/A   Clear
12:55 PM 62.6 °F - 32.0 °F 32% 30.34 in 10.0 mi ESE 3.5 mph - N/A   Clear
1:15 PM 62.6 °F - 32.0 °F 32% 30.33 in 10.0 mi ESE 8.1 mph - N/A   Clear
1:35 PM 64.4 °F - 32.0 °F 30% 30.32 in 10.0 mi ESE 3.5 mph - N/A   Clear
1:55 PM 64.4 °F - 33.8 °F 32% 30.31 in 10.0 mi East 6.9 mph - N/A   Clear
2:15 PM 66.2 °F - 33.8 °F 30% 30.31 in 10.0 mi South 8.1 mph - N/A   Clear
2:35 PM 66.2 °F - 33.8 °F 30% 30.30 in 10.0 mi SE 11.5 mph 18.4 mph N/A   Clear
2:55 PM 66.2 °F - 33.8 °F 30% 30.30 in 10.0 mi ESE 6.9 mph - N/A   Clear
3:15 PM 64.4 °F - 33.8 °F 32% 30.29 in 10.0 mi SSE 5.8 mph - N/A   Clear
3:35 PM 68.0 °F - 35.6 °F 30% 30.29 in 10.0 mi SSE 4.6 mph - N/A   Clear
3:55 PM 68.0 °F - 35.6 °F 30% 30.28 in 10.0 mi South 4.6 mph - N/A   Clear
4:15 PM 68.0 °F - 35.6 °F 30% 30.28 in 10.0 mi SSE 5.8 mph - N/A   Clear
4:35 PM 68.0 °F - 35.6 °F 30% 30.28 in 10.0 mi ESE 4.6 mph - N/A   Clear
4:55 PM 68.0 °F - 35.6 °F 30% 30.27 in 10.0 mi SSE 10.4 mph - N/A   Scattered Clouds
5:15 PM 68.0 °F - 37.4 °F 33% 30.27 in 10.0 mi SSE 4.6 mph - N/A   Scattered Clouds
5:35 PM 66.2 °F - 35.6 °F 32% 30.27 in 10.0 mi SE 5.8 mph - N/A   Clear
5:55 PM 64.4 °F - 37.4 °F 37% 30.27 in 10.0 mi ESE 5.8 mph - N/A   Scattered Clouds
6:15 PM 64.4 °F - 37.4 °F 37% 30.27 in 10.0 mi SE 3.5 mph - N/A   Mostly Cloudy
6:35 PM 62.6 °F - 41.0 °F 45% 30.27 in 10.0 mi ESE 3.5 mph - N/A   Overcast
6:55 PM 60.8 °F - 41.0 °F 48% 30.27 in 10.0 mi ESE 4.6 mph - N/A   Overcast
7:15 PM 60.8 °F - 41.0 °F 48% 30.26 in 10.0 mi Calm Calm - N/A   Overcast
7:35 PM 60.8 °F - 41.0 °F 48% 30.27 in 10.0 mi Calm Calm - N/A   Mostly Cloudy
7:55 PM 59.0 °F - 42.8 °F 55% 30.27 in 10.0 mi ESE 3.5 mph - N/A   Mostly Cloudy
8:15 PM 59.0 °F - 42.8 °F 55% 30.27 in 10.0 mi Calm Calm - N/A   Overcast
8:35 PM 57.2 °F - 42.8 °F 59% 30.27 in 10.0 mi Calm Calm - N/A   Scattered Clouds
8:55 PM 55.4 °F - 44.6 °F 67% 30.27 in 10.0 mi East 3.5 mph - N/A   Clear
9:15 PM 55.4 °F - 44.6 °F 67% 30.26 in 10.0 mi SE 3.5 mph - N/A   Clear
9:35 PM 55.4 °F - 44.6 °F 67% 30.26 in 10.0 mi ESE 4.6 mph - N/A   Clear
9:55 PM 53.6 °F - 44.6 °F 72% 30.26 in 10.0 mi SE 4.6 mph - N/A   Clear
10:15 PM 53.6 °F - 44.6 °F 72% 30.25 in 10.0 mi SE 3.5 mph - N/A   Clear
10:35 PM 53.6 °F - 44.6 °F 72% 30.25 in 10.0 mi Calm Calm - N/A   Clear
10:55 PM 51.8 °F - 44.6 °F 76% 30.24 in 10.0 mi Calm Calm - N/A   Clear
11:15 PM 51.8 °F - 44.6 °F 76% 30.24 in 10.0 mi Calm Calm - N/A   Clear
11:35 PM 50.0 °F - 42.8 °F 76% 30.25 in 10.0 mi Calm Calm - N/A   Clear
11:55 PM 48.2 °F - 42.8 °F 82% 30.25 in 10.0 mi Calm Calm - N/A   Clear